Miscellaneous Local Product
Issued by NWS Hastings, NE

Home | Current Version | Previous Version | Text Only | Print | Product List | Glossary On
Versions: 1 2 3 4 5 6 7 8 9 10 11 12 13 14 15 16 17 18 19 20 21 22 23 24 25 26 27 28 29 30 31 32 33 34 35 36 37 38 39 40 41 42 43 44 45 46 47 48 49 50
264
AXUS43 KGID 031802
MISGRI

GID CWA HOURLY WEATHER ROUNDUP
NATIONAL WEATHER SERVICE HASTINGS NE
1200 PM CST SAT DEC 03 2016

NOTE: "FAIR" INDICATES FEW OR NO CLOUDS BELOW 12,000 FEET WITH NO
SIGNIFICANT WEATHER AND/OR OBSTRUCTIONS TO VISIBILITY.

...SOUTH CENTRAL NEBRASKA...

CITY           SKY/WX    TMP DP  RH WIND       PRES   REMARKS
GRAND ISLAND   LGT SNOW  32  32 100 S7        30.19F VSB 1   WCI  26
HASTINGS       LGT SNOW  33  32  96 S5        30.20F FOG     WCI  29
KEARNEY        CLOUDY    34  30  86 S10       30.17F WCI  26
ORD            CLOUDY    36  27  69 S12       30.12F WCI  28
YORK           LGT SNOW  32  32 100 S5        30.22F WCI  27
AURORA         LGT SNOW  33  33  99 S5        30.20F WCI  28
LEXINGTON      CLOUDY    34  29  83 S12       30.13F WCI  25
HOLDREGE       LGT SNOW  33  32  96 S9        30.16F WCI  25
HEBRON         LGT SNOW  32  32 100 SE3       30.23F VSB 3/4

...NEBRASKA PANHANDLE...

CITY           SKY/WX    TMP DP  RH WIND       PRES   REMARKS
CHADRON        SUNNY     42  11  28 W22G30    29.93F
ALLIANCE       SUNNY     40  10  29 W21G29    29.96F WCI  30
SCOTTSBLUFF    SUNNY     42  11  28 W17G28    29.97F
SIDNEY         SUNNY     38  21  50 W6        30.01F WCI  33

...WESTERN AND NORTH CENTRAL NEBRASKA...

CITY           SKY/WX    TMP DP  RH WIND       PRES   REMARKS
VALENTINE      SUNNY     44  23  43 SW17G32   29.97F
AINSWORTH      SUNNY     43  27  54 S18G25    29.99F
ONEILL         CLOUDY    37  30  77 S15G22    30.12F WCI  28
BROKEN BOW     CLOUDY    37  28  70 S16G24    30.09F WCI  28
NORTH PLATTE   SUNNY     44  21  40 S18       30.06F
MCCOOK         NOT AVBL

...EASTERN NEBRASKA...

CITY           SKY/WX    TMP DP  RH WIND       PRES   REMARKS
NORFOLK        FLURRIES  33  28  81 S14       30.20F WCI  23
SO SIOUX CITY  CLOUDY    35  31  85 S7        30.25F WCI  29
TEKAMAH        CLOUDY    34  29  82 S10       30.28F WCI  26
COLUMBUS       CLOUDY    32  28  86 S6        30.23F WCI  26
ALBION         LGT SNOW  33  30  88 S9        30.19F WCI  26
OMAHA EPPLEY   CLOUDY    34  28  79 S9        30.29F WCI  27
MILLARD        CLOUDY    35  31  87 S5        30.29F WCI  31
LINCOLN        LGT SNOW  33  32  96 SE5       30.26F VSB 1   WCI  29
NEBRASKA CITY  CLOUDY    34  30  86 CALM      30.28F
BEATRICE       LGT SNOW  33  33 100 SE3       30.25F VSB 1
FALLS CITY     CLOUDY    37  32  82 E5        30.26F WCI  33

...NORTHERN KANSAS...

CITY           SKY/WX    TMP DP  RH WIND       PRES   REMARKS
GOODLAND       CLOUDY    35  26  69 S12       30.06F WCI  27
HILL CITY      CLOUDY    34  33  96 SE3       30.16F FOG
NORTON         FLURRIES  34  28  80 SE6       30.13F WCI  29
PHILLIPSBURG   LGT SNOW  34  34 100 NE3       30.18F
SMITH CENTER   MIX PCPN  30  30 100 E3        30.20F
BELOIT         CLOUDY    32  30  93 CALM      30.20F VSB 1/2
HAYS           MIX PCPN  32  31  96 E5        30.18F FOG     WCI  27
RUSSELL        LGT SNOW  32  31  96 NE6       30.17F FOG     WCI  26
CONCORDIA      LGT SNOW  34  33  96 NE3       30.21F FOG
SALINA         LGT RAIN  38  33  82 NE5       30.21F WCI  34
TOPEKA         CLOUDY    43  31  62 E8        30.23F



USA.gov is the U.S. government's official web portal to all federal, state and local government web resources and services.